Location: Crystal Lake Park
(43.2255°N, 93.7924°W)
Time: 10:33:45
(UTC+00:00)

Daily predictions for brighter satellites

Satellite Brightness Start Highest point End
(mag) Time Altitude Azimuth Time Altitude Azimuth Time Altitude Azimuth
BREEZE M DEB (TANK) 3.6 12:03:10 24° NW 12:04:15 28° N 12:06:25 10° ENE
Cosmos 2369 Rocket 2.5 12:02:21 10° SW 12:07:38 42° WNW 12:12:58 10° NNE
Cosmos 1408 Rocket 3.6 12:04:51 10° S 12:09:08 83° E 12:13:28 10° N
USA 238 DEB 4.4 12:10:12 18° W 12:14:00 31° NW 12:20:04 10° NNE
USA 238 4.4 12:10:15 18° W 12:14:06 31° NW 12:20:11 10° NNE
Cosmos 2279 Rocket 4.1 12:08:21 10° NNW 12:14:22 54° W 12:20:21 10° SSW
BREEZE-M DEB 4.1 12:12:11 10° SW 12:15:08 53° SE 12:23:34 10° ENE
USA 215 3.3 12:10:05 10° SE 12:16:36 72° SW 12:22:27 13° NW
Cosmos 1743 Rocket 4.5 12:12:28 10° S 12:16:44 52° E 12:20:59 10° NNE
H-2A R/B 4.4 12:13:31 10° NE 12:17:32 25° E 12:21:33 10° SSE
Nadezhda 4 Rocket 4.0 12:17:02 10° S 12:23:11 90° WNW 12:29:27 10° N
Cosmos 783 Rocket 4.5 12:20:09 10° NNW 12:25:22 85° WSW 12:30:34 10° SSE
Cosmos 1503 Rocket 4.1 12:20:33 10° SW 12:25:41 52° WNW 12:30:54 10° NNE
Cosmos 1515 Rocket 3.5 12:22:25 10° NNW 12:26:47 71° W 12:31:05 10° S
DMSP B5D2-2 4.0 12:22:31 10° S 12:27:43 69° WSW 12:32:55 10° NNW
Cosmos 1656 Rocket 4.0 12:24:36 10° SW 12:29:38 38° WNW 12:34:42 10° N
SL-8 R/B 3.7 12:26:14 16° WNW 12:30:08 88° NNE 12:34:55 10° ESE
Meteor 2-15 Rocket 4.4 12:26:02 10° NNW 12:32:08 77° W 12:38:09 10° S
SL-27 R/B 2.5 12:28:54 10° NNW 12:32:30 86° ENE 12:36:02 10° SSE
SJ 16-02 1.5 12:28:54 10° SSW 12:33:16 79° ESE 12:37:40 10° NNE
CZ-2C R/B 3.7 12:29:50 10° SSW 12:34:23 26° W 12:38:52 10° NW
Cosmos 1340 Rocket 2.8 12:31:56 10° S 12:35:52 84° E 12:39:52 10° NNE
Cosmos 1943 Rocket 3.8 12:34:39 12° WNW 12:36:35 14° NW 12:39:37 10° N
Cosmos 1777 Rocket 4.0 12:31:44 10° SSW 12:36:57 88° WNW 12:42:13 10° NNE
Cosmos 1092 Rocket 4.4 12:31:36 10° S 12:37:47 70° E 12:44:03 10° NNE
Cosmos 2227 Rocket 4.4 12:35:23 10° N 12:39:16 19° NE 12:43:09 10° E
Cosmos 1939 Rocket 2.7 12:40:51 10° N 12:44:46 67° WNW 12:48:36 10° SSW
NOAA 6 4.2 12:40:18 10° NNE 12:45:27 83° ESE 12:50:34 10° SSW
Cosmos 1500 Rocket 3.5 12:41:03 10° SSW 12:45:29 71° W 12:49:58 10° N
Cosmos 773 Rocket 4.1 12:41:10 10° NNW 12:46:20 62° WSW 12:51:25 10° S
EP 2 4.5 12:44:08 10° SW 12:47:15 81° NW 12:50:14 10° NE
CORIOLIS 4.5 12:41:57 10° NNE 12:47:26 76° ESE 12:52:52 10° S
Meteor 1-27 Rocket 3.8 12:45:36 10° NNW 12:51:08 60° W 12:56:46 10° S
Envisat 4.5 12:52:55 10° NNW 12:55:52 16° WNW 12:58:49 10° W
Cosmos 1500 4.0 12:52:41 10° S 12:56:25 55° E 13:00:10 10° NNE
Cosmos 1805 Rocket 3.6 12:52:46 10° S 12:57:10 89° E 13:01:34 10° N
Sich 1 3.4 12:54:02 10° S 12:58:17 71° E 13:02:34 10° NNE
NOAA 12 4.3 12:53:35 10° N 12:58:40 49° WNW 13:03:41 10° SW
H-2A R/B 2.5 12:55:22 10° S 12:59:24 43° W 13:03:34 10° NNW
NOSS 3-1 (A) 4.2 22:57:27 10° NNW 23:04:51 60° NE 23:13:30 10° SE
NOSS 3-1 (C) 4.2 22:57:54 10° NW 23:05:31 87° NE 23:14:24 10° SE
Cosmos 1464 Rocket 4.2 23:00:54 10° S 23:07:16 90° WNW 23:13:41 10° N
Cosmos 44 3.3 23:04:21 10° NW 23:09:07 84° WSW 23:13:34 10° SSE
CZ-2C R/B 4.1 23:07:14 10° NE 23:10:27 16° E 23:13:37 10° SE
Cosmos 468 Rocket 4.1 23:07:19 10° S 23:12:20 59° ESE 23:17:27 10° NNE
CZ-2C R/B 2.9 23:09:13 10° SSE 23:14:10 83° ENE 23:18:59 10° NNW
Cosmos 1898 Rocket 3.7 23:11:17 10° N 23:16:22 48° ENE 23:21:24 10° SE
Cosmos 2084 3.6 23:13:08 10° NNW 23:17:23 57° NE 23:21:48 10° SE
Nadezhda 4 Rocket 4.0 23:11:09 10° N 23:17:30 78° E 23:23:50 10° SSE
SL-08 R/B 3.9 23:17:44 10° N 23:22:23 60° WNW 23:26:56 10° SSW
AQUARIUS 4.4 23:18:34 10° SE 23:22:52 47° ENE 23:27:10 10° N
CZ-4C R/B 3.6 23:19:29 10° NNW 23:25:44 33° NE 23:32:56 10° E
Cosmos 1939 Rocket 2.8 23:27:10 10° SSE 23:31:16 75° ENE 23:35:22 10° N
Cosmos 1092 Rocket 4.1 23:26:18 10° N 23:32:35 60° E 23:38:49 10° SSE
Cosmos 1812 4.0 23:31:10 10° SE 23:34:07 21° E 23:36:51 11° NE
H-2A R/B 2.4 23:31:31 10° SE 23:36:21 41° ENE 23:41:04 10° N
USA 276 2.2 23:34:17 10° WNW 23:37:23 75° SSW 23:40:30 10° SE
COSMO-SKYMED 1 3.7 23:34:23 10° NE 23:37:58 24° E 23:41:31 10° SSE
Cosmos 1656 4.3 23:32:46 10° NNW 23:38:15 62° WSW 23:43:46 10° S
FengYun 1-2 T 4.4 23:36:17 10° S 23:41:53 79° WSW 23:47:28 10° NNW
Cosmos 1763 Rocket 3.8 23:41:42 10° SSW 23:46:44 66° WNW 23:51:49 10° NNE
Cosmos 2322 Rocket 4.0 23:45:10 10° NNE 23:47:17 12° NE 23:47:28 12° NE
Cosmos 1633 Rocket 4.0 23:44:23 10° NNE 23:48:02 25° ENE 23:51:40 10° SE
Cosmos 1697 Rocket 2.6 23:45:15 10° NNW 23:50:54 84° ENE 23:56:31 10° SSE
Cosmos 1602 3.6 23:47:46 10° N 23:51:39 79° E 23:55:31 10° S
Cosmos 841 Rocket 3.5 23:47:21 10° S 23:52:26 61° ESE 23:57:32 10° NNE
Cosmos 1627 Rocket 4.4 23:47:20 10° N 23:53:31 74° E 23:59:37 10° SSE
